Weather History for PAGS - January, 2011

Change the Weather History Date:

Monday, January 17, 2011

  Actual Average Record
Temperature  
Mean Temperature 26 °F -  
Max Temperature 35 °F 33 °F 48 °F (1965)
Min Temperature 17 °F 26 °F -4 °F (1950)
Degree Days  
Heating Degree Days 39    
Moisture  
Dew Point 23 °F    
Average Humidity 85    
Maximum Humidity 93    
Minimum Humidity 69    
Precipitation  
Precipitation 0.00 in - - ()
Sea Level Pressure  
Sea Level Pressure 29.88 in    
Wind  
Wind Speed 7 mph (SE)    
Max Wind Speed 14 mph    
Max Gust Speed 20 mph    
Visibility 7 miles    
Events      
Averages and records for this station are not official NWS values.
T = Trace of Precipitation, MM = Missing Value Source: NWS Daily Summary

Daily Weather History Graph

Daily Weather History Graph

Search for Another Location

Airport or City:

Trip Planner

Search our weather history database for the weather conditions in past years. The results will help you decide how hot, cold, wet, or windy it might be!

Date:

Astronomy

Jan. 17, 2011 Rise Set
Actual Time 8:36 AM AKST 3:50 PM AKST
Civil Twilight 7:47 AM AKST 4:38 PM AKST
Nautical Twilight 6:56 AM AKST 5:29 PM AKST
Astronomical Twilight 6:09 AM AKST 6:17 PM AKST
Moon 1:23 PM AKST (1/17) 7:10 AM AKST (1/17)
Length of Visible Light 8h 51m
Length of Day
7h 14m
Waxing Gibbous, 95% of the Moon is Illuminated
Jan 17
Waxing Gibbous
Jan 19
Full
Jan 26
Last Quarter
Feb 2
New
Feb 10
First Quarter

Hourly Weather History & Observations

Time (AKST) Temp. Windchill Dew Point Humidity Pressure Visibility Wind Dir Wind Speed Gust Speed Precip Events Conditions
12:16 AM 24.8 °F 14.6 °F 19.4 °F 80% 29.70 in 10.0 mi SE 10.4 mph - N/A   Overcast
12:36 AM 24.8 °F 14.6 °F 19.4 °F 80% 29.72 in 10.0 mi SE 10.4 mph - N/A   Overcast
12:56 AM 24.8 °F 13.4 °F 17.6 °F 74% 29.73 in 10.0 mi SE 12.7 mph - N/A   Overcast
1:16 AM 24.8 °F 14.6 °F 17.6 °F 74% 29.74 in 10.0 mi SE 10.4 mph - N/A   Overcast
1:36 AM 24.8 °F 16.9 °F 17.6 °F 74% 29.75 in 10.0 mi SE 6.9 mph - N/A   Overcast
1:56 AM 24.8 °F 15.3 °F 17.6 °F 74% 29.76 in 10.0 mi SE 9.2 mph - N/A   Mostly Cloudy
2:16 AM 24.8 °F 14.0 °F 17.6 °F 74% 29.77 in 10.0 mi ESE 11.5 mph - N/A   Mostly Cloudy
2:36 AM 26.6 °F 15.7 °F 17.6 °F 69% 29.77 in 10.0 mi SE 12.7 mph 18.4 mph N/A   Overcast
2:56 AM 26.6 °F 16.8 °F 19.4 °F 74% 29.77 in 10.0 mi ESE 10.4 mph - N/A   Overcast
3:16 AM 26.6 °F 16.2 °F 19.4 °F 74% 29.78 in 10.0 mi SE 11.5 mph - N/A   Overcast
3:36 AM 26.6 °F 16.2 °F 19.4 °F 74% 29.79 in 10.0 mi SE 11.5 mph - N/A   Overcast
3:56 AM 26.6 °F 20.0 °F 19.4 °F 74% 29.79 in 10.0 mi SE 5.8 mph - N/A   Overcast
4:16 AM 26.6 °F 17.5 °F 19.4 °F 74% 29.80 in 10.0 mi SE 9.2 mph - N/A   Scattered Clouds
4:36 AM 23.0 °F - 17.6 °F 80% 29.81 in 10.0 mi Calm Calm - N/A   Scattered Clouds
4:56 AM 21.2 °F 11.7 °F 17.6 °F 86% 29.82 in 10.0 mi NNW 8.1 mph - N/A   Scattered Clouds
5:16 AM 17.6 °F 10.7 °F 14.0 °F 86% 29.84 in 10.0 mi NNW 4.6 mph - N/A   Partly Cloudy
5:36 AM 19.4 °F 14.3 °F 14.0 °F 80% 29.85 in 10.0 mi North 3.5 mph - N/A   Scattered Clouds
5:56 AM 17.6 °F 10.7 °F 15.8 °F 93% 29.85 in 10.0 mi North 4.6 mph - N/A   Mostly Cloudy
6:16 AM 17.6 °F 9.3 °F 15.8 °F 93% 29.86 in 10.0 mi North 5.8 mph - N/A   Overcast
6:36 AM 17.6 °F - 15.8 °F 93% 29.87 in 10.0 mi Calm Calm - N/A   Overcast
6:56 AM 19.4 °F 14.3 °F 17.6 °F 93% 29.87 in 10.0 mi ESE 3.5 mph - N/A   Overcast
7:16 AM 21.2 °F 16.4 °F 17.6 °F 86% 29.88 in 10.0 mi NNW 3.5 mph - N/A   Overcast
7:36 AM 21.2 °F - 17.6 °F 86% 29.89 in 10.0 mi Calm Calm - N/A   Overcast
7:56 AM 24.8 °F - 21.2 °F 86% 29.89 in 10.0 mi Calm Calm - N/A   Overcast
8:16 AM 23.0 °F 17.0 °F 19.4 °F 86% 29.90 in 1.2 mi WNW 4.6 mph - N/A   Overcast
8:36 AM 23.0 °F 14.7 °F 19.4 °F 86% 29.89 in 0.8 mi NW 6.9 mph - N/A   Overcast
8:56 AM 23.0 °F 15.8 °F 19.4 °F 86% 29.90 in 1.0 mi WNW 5.8 mph - N/A   Overcast
9:16 AM 24.8 °F 16.9 °F 21.2 °F 86% 29.90 in 1.2 mi NNW 6.9 mph - N/A   Overcast
9:36 AM 24.8 °F - 21.2 °F 86% 29.91 in 0.8 mi Calm Calm - N/A   Overcast
9:56 AM 24.8 °F - 21.2 °F 86% 29.90 in 1.0 mi Calm Calm - N/A   Overcast
10:16 AM 24.8 °F - 21.2 °F 86% 29.91 in 2.0 mi Calm Calm - N/A   Overcast
10:36 AM 26.6 °F 22.6 °F 23.0 °F 86% 29.91 in 2.0 mi South 3.5 mph - N/A   Overcast
10:56 AM 28.4 °F 22.2 °F 24.8 °F 86% 29.91 in 2.5 mi WNW 5.8 mph - N/A   Overcast
11:16 AM 26.6 °F 22.6 °F 24.8 °F 93% 29.92 in 9.0 mi NNW 3.5 mph - N/A   Overcast
11:36 AM 26.6 °F - 24.8 °F 93% 29.92 in 1.5 mi Calm Calm - N/A   Overcast
11:56 AM 26.6 °F - 24.8 °F 93% 29.92 in 9.0 mi Calm Calm - N/A   Overcast
12:16 PM 28.4 °F - 26.6 °F 93% 29.93 in 1.2 mi Calm Calm - N/A   Overcast
12:36 PM 28.4 °F 24.6 °F 26.6 °F 93% 29.93 in 3.0 mi SSE 3.5 mph - N/A   Mostly Cloudy
12:56 PM 30.2 °F - 26.6 °F 86% 29.93 in 7.0 mi Calm Calm - N/A   Overcast
1:16 PM 28.4 °F 21.2 °F 26.6 °F 93% 29.94 in 10.0 mi NNW 6.9 mph - N/A   Scattered Clouds
1:36 PM 28.4 °F - 26.6 °F 93% 29.94 in 9.0 mi Calm Calm - N/A   Mostly Cloudy
1:56 PM 30.2 °F 23.4 °F 28.4 °F 93% 29.94 in 1.0 mi WSW 6.9 mph - N/A   Overcast
2:16 PM 33.8 °F 30.8 °F 30.2 °F 87% 29.95 in 10.0 mi East 3.5 mph - N/A   Mostly Cloudy
2:36 PM 33.8 °F 29.6 °F 30.2 °F 87% 29.95 in 10.0 mi ENE 4.6 mph - N/A   Overcast
2:56 PM 33.8 °F 28.6 °F 30.2 °F 87% 29.96 in 1.0 mi SSW 5.8 mph - N/A   Overcast
3:16 PM 35.6 °F 30.7 °F 30.2 °F 81% 29.95 in 10.0 mi SSE 5.8 mph - N/A   Mostly Cloudy
3:36 PM 35.6 °F 26.6 °F 30.2 °F 81% 29.96 in 10.0 mi SW 13.8 mph 19.6 mph N/A   Mostly Cloudy
3:56 PM 33.8 °F - 32.0 °F 93% 29.97 in 5.0 mi Calm Calm - N/A   Overcast
4:16 PM 33.8 °F - 30.2 °F 87% 29.98 in 5.0 mi Calm Calm - N/A   Overcast
4:36 PM 33.8 °F 28.6 °F 30.2 °F 87% 29.98 in 10.0 mi East 5.8 mph - N/A   Overcast
4:56 PM 35.6 °F 27.5 °F 32.0 °F 87% 29.98 in 10.0 mi SSW 11.5 mph 18.4 mph N/A   Mostly Cloudy
5:16 PM 33.8 °F 25.8 °F 30.2 °F 87% 29.97 in 7.0 mi SE 10.4 mph - N/A   Mostly Cloudy
5:36 PM 33.8 °F 28.6 °F 32.0 °F 93% 29.98 in 1.5 mi South 5.8 mph - N/A   Overcast
5:56 PM 33.8 °F 27.7 °F 30.2 °F 87% 29.98 in 1.5 mi SE 6.9 mph - N/A   Overcast
6:16 PM 33.8 °F 27.7 °F 30.2 °F 87% 29.97 in 10.0 mi ESE 6.9 mph - N/A   Overcast
6:36 PM 33.8 °F 27.7 °F 30.2 °F 87% 29.97 in 10.0 mi SE 6.9 mph - N/A   Mostly Cloudy
6:56 PM 33.8 °F 26.4 °F 32.0 °F 93% 29.96 in 10.0 mi SE 9.2 mph - N/A   Mostly Cloudy
7:16 PM 33.8 °F 26.4 °F 30.2 °F 87% 29.97 in 3.0 mi SE 9.2 mph - N/A   Overcast
7:36 PM 33.8 °F 27.7 °F 30.2 °F 87% 29.97 in 3.0 mi SSE 6.9 mph - N/A   Overcast
7:56 PM 33.8 °F 29.6 °F 32.0 °F 93% 29.97 in 10.0 mi East 4.6 mph - N/A   Overcast
8:16 PM 33.8 °F 29.6 °F 32.0 °F 93% 29.98 in 2.5 mi NW 4.6 mph - N/A   Overcast
8:36 PM 33.8 °F 28.6 °F 30.2 °F 87% 29.97 in 3.0 mi East 5.8 mph - N/A   Overcast
8:56 PM 33.8 °F 29.6 °F 30.2 °F 87% 29.97 in 4.0 mi SE 4.6 mph - N/A   Overcast
9:16 PM 35.6 °F 29.9 °F 32.0 °F 87% 29.97 in 9.0 mi ESE 6.9 mph 16.1 mph N/A   Overcast
9:36 PM 33.8 °F 27.7 °F 32.0 °F 93% 29.96 in 10.0 mi SE 6.9 mph - N/A   Overcast
9:56 PM 35.6 °F 28.6 °F 32.0 °F 87% 29.95 in 10.0 mi SE 9.2 mph - N/A   Overcast
10:16 PM 35.6 °F 28.0 °F 32.0 °F 87% 29.95 in 10.0 mi ESE 10.4 mph - N/A   Overcast
10:36 PM 35.6 °F 26.6 °F 32.0 °F 87% 29.95 in 10.0 mi SE 13.8 mph - N/A   Overcast
10:56 PM 35.6 °F 27.5 °F 30.2 °F 81% 29.95 in 5.0 mi SSE 11.5 mph - N/A   Mostly Cloudy
11:16 PM 33.8 °F 29.6 °F 32.0 °F 93% 29.96 in 9.0 mi SSE 4.6 mph - N/A   Overcast
11:36 PM 33.8 °F 30.8 °F 32.0 °F 93% 29.95 in 9.0 mi SE 3.5 mph - N/A   Overcast
11:56 PM 33.8 °F 26.4 °F 30.2 °F 87% 29.95 in 7.0 mi SE 9.2 mph - N/A   Overcast